Temp
7 6 5 5 5 4 4 4 4 4 3 3 3 3 2 2 2 1 1 1 0 -0 -1 -1 -1 -1 -1 -1 -1 -1 -1 -1
6 5 5 5 4 5 4 4 3 3 3 3 2 2 2 1 0 -0 -0 -1 -1 -1 -1 -1 -1 -1 -2 -2 -2 -2 -2 -2
6 5 5 5 4 4 4 4 3 3 2 2 2 2 1 1 0 -0 -1 -2 -1 -2 -2 -2 -2 -2 -2 -2 -2 -2 -2 -3
6 6 5 4 4 3 3 3 3 3 2 1 1 1 1 -0 -1 -1 -2 -2 -2 -2 -2 -2 -2 -2 -3 -3 -3 -4 -3 -3
3 4 4 3 3 3 3 2 2 2 2 1 1 0 -0 -1 -1 -1 -2 -2 -2 -2 -2 -3 -3 -3 -4 -4 -4 -4 -4 -4
3 3 3 3 3 3 2 2 1 1 1 0 0 -0 -1 -1 -1 -1 -1 -1 -2 -3 -3 -3 -4 -4 -5 -4 -4 -5 -5 -5
2 2 2 3 3 3 2 1 0 -1 -1 -1 -0 -0 -0 -0 -1 -1 -2 -2 -3 -4 -4 -4 -4 -4 -5 -6 -5 -5 -5 -6
1 1 1 0 -0 1 1 1 -0 -1 -1 -2 -2 -2 -2 -2 -3 -3 -3 -4 -4 -4 -5 -5 -5 -6 -6 -6 -7 -7 -8 -9
-0 -1 -1 -1 -2 -1 -1 -0 -1 -1 -1 -1 -2 -3 -3 -3 -3 -4 -5 -5 -5 -6 -6 -6 -7 -7 -8 -8 -10 -10 -11 -11
-1 -1 -1 -2 -2 -1 -1 -2 -2 -3 -2 -2 -3 -3 -3 -4 -4 -5 -5 -6 -6 -6 -7 -8 -8 -9 -10 -10 -11 -11 -12 -12
-1 -1 -2 -2 -2 -2 -3 -4 -4 -4 -4 -4 -4 -4 -5 -5 -6 -6 -6 -6 -7 -8 -8 -9 -11 -11 -11 -12 -12 -12 -12 -12
-1 -2 -2 -2 -2 -3 -4 -4 -4 -5 -4 -5 -5 -5 -6 -6 -6 -7 -7 -8 -8 -9 -11 -11 -12 -12 -12 -12 -13 -12 -13 -12
-2 -2 -2 -3 -3 -4 -5 -5 -5 -5 -5 -6 -6 -6 -6 -7 -7 -8 -8 -9 -9 -10 -12 -12 -12 -12 -13 -13 -13 -13 -13 -14
-2 -2 -3 -3 -4 -3 -5 -5 -5 -5 -6 -6 -7 -7 -7 -7 -8 -8 -9 -10 -11 -12 -13 -13 -13 -14 -14 -14 -14 -14 -14 -15
-3 -3 -3 -3 -4 -5 -5 -6 -7 -7 -7 -7 -8 -8 -8 -8 -9 -10 -11 -12 -13 -13 -14 -14 -14 -14 -14 -15 -15 -15 -15 -15
-2 -3 -4 -4 -4 -5 -7 -8 -8 -9 -8 -8 -9 -10 -10 -10 -11 -11 -12 -13 -14 -14 -14 -15 -15 -15 -16 -16 -16 -15 -16 -16
-4 -4 -4 -5 -7 -8 -8 -8 -9 -9 -10 -10 -10 -11 -11 -11 -12 -12 -13 -14 -14 -15 -15 -15 -16 -16 -16 -16 -16 -16 -16 -16
-4 -4 -7 -8 -8 -8 -9 -9 -9 -9 -10 -10 -11 -11 -11 -11 -12 -13 -13 -14 -14 -15 -16 -16 -16 -16 -17 -16 -16 -17 -17 -17
-5 -7 -8 -8 -8 -9 -9 -9 -9 -10 -10 -10 -11 -11 -11 -11 -12 -13 -14 -14 -15 -16 -16 -16 -17 -17 -17 -17 -17 -17 -17 -17
Height
3167 3163 3162 3161 3163 3163 3164 3161 3159 3160 3158 3158 3156 3153 3152 3150 3147 3140 3138 3137 3134 3132 3129 3126 3123 3119 3116 3114 3110 3106 3103 3099
3158 3157 3158 3160 3160 3160 3159 3159 3158 3158 3156 3154 3153 3149 3146 3143 3140 3135 3133 3130 3129 3125 3121 3117 3113 3109 3105 3101 3097 3094 3091 3090
3156 3156 3156 3157 3158 3157 3157 3156 3156 3155 3151 3149 3147 3145 3143 3139 3135 3130 3127 3121 3118 3115 3111 3106 3101 3096 3094 3090 3086 3081 3079 3079
3153 3154 3155 3155 3155 3154 3154 3152 3151 3151 3146 3142 3141 3139 3136 3133 3129 3126 3120 3115 3110 3104 3098 3093 3088 3083 3082 3078 3074 3070 3066 3068
3149 3151 3153 3153 3152 3151 3150 3148 3144 3143 3142 3137 3134 3131 3128 3125 3120 3115 3109 3105 3100 3095 3090 3084 3079 3074 3070 3066 3062 3059 3056 3054
3149 3149 3149 3149 3148 3147 3145 3141 3137 3132 3133 3131 3127 3124 3120 3115 3110 3105 3100 3094 3090 3085 3079 3073 3068 3064 3058 3052 3050 3047 3044 3041
3148 3147 3143 3141 3142 3140 3139 3136 3133 3128 3122 3120 3117 3114 3110 3105 3099 3093 3088 3084 3080 3075 3069 3062 3056 3051 3047 3041 3036 3033 3031 3027
3148 3146 3144 3140 3135 3133 3131 3130 3127 3123 3118 3112 3107 3102 3098 3093 3088 3083 3080 3075 3069 3064 3057 3052 3047 3040 3034 3029 3025 3020 3015 3013
3145 3143 3140 3137 3133 3129 3125 3124 3121 3118 3112 3108 3102 3095 3089 3083 3079 3074 3069 3064 3057 3051 3045 3039 3033 3027 3022 3017 3012 3010 3006 3004
3143 3141 3138 3134 3129 3125 3121 3117 3113 3109 3103 3099 3094 3088 3083 3076 3071 3065 3059 3055 3049 3042 3037 3030 3023 3018 3013 3011 3005 3002 2999 2997
3140 3137 3133 3129 3126 3121 3117 3112 3106 3101 3094 3088 3083 3077 3072 3066 3062 3057 3051 3045 3039 3031 3024 3021 3015 3010 3007 3003 2999 2995 2992 2990
3135 3131 3126 3122 3119 3116 3111 3104 3097 3092 3086 3080 3075 3069 3062 3058 3053 3046 3041 3034 3028 3023 3017 3013 3008 3003 2999 2994 2989 2985 2982 2980
3128 3126 3122 3118 3112 3106 3100 3093 3086 3081 3077 3071 3067 3060 3053 3050 3044 3038 3033 3027 3021 3014 3010 3005 3001 2996 2990 2985 2980 2976 2972 2970
3123 3118 3113 3109 3104 3098 3092 3085 3079 3074 3069 3064 3058 3052 3046 3042 3036 3031 3024 3018 3011 3006 3001 2996 2991 2986 2982 2977 2972 2969 2965 2962
3117 3112 3108 3102 3095 3089 3083 3077 3070 3066 3060 3055 3049 3043 3037 3032 3026 3020 3014 3008 3002 2997 2992 2987 2983 2978 2974 2968 2965 2961 2958 2954
3108 3104 3099 3092 3087 3081 3076 3070 3064 3058 3052 3047 3041 3035 3026 3022 3017 3011 3005 2999 2994 2989 2984 2980 2975 2971 2965 2961 2957 2953 2948 2944
3101 3097 3090 3084 3078 3074 3069 3063 3058 3051 3044 3039 3033 3025 3019 3015 3011 3004 2997 2992 2986 2981 2977 2972 2968 2963 2957 2953 2949 2944 2939 2934
3094 3088 3082 3077 3073 3068 3064 3059 3052 3045 3039 3033 3026 3017 3012 3009 3003 2996 2990 2985 2980 2975 2970 2966 2961 2957 2950 2945 2941 2935 2929 2925
3085 3081 3077 3071 3066 3062 3057 3051 3046 3039 3032 3025 3018 3005 3001 2998 2995 2989 2983 2979 2974 2969 2964 2959 2955 2951 2943 2937 2931 2926 2920 2914
Wind_Speed
19 21 21 23 22 21 17 20 24 24 24 23 27 30 30 30 33 31 37 37 38 39 42 44 45 45 46 48 49 48 45 44
24 25 29 27 19 20 22 22 19 18 21 24 25 29 29 31 33 37 40 38 43 46 47 48 49 49 51 52 49 49 45 43
26 24 26 21 18 17 15 18 19 20 25 24 25 28 31 34 35 40 48 46 49 48 53 53 53 52 49 45 44 46 44 41
28 29 21 14 13 15 18 22 24 26 28 30 29 31 34 36 41 44 47 45 47 51 52 50 50 50 47 44 42 43 46 43
12 9 11 14 16 19 22 27 31 32 31 32 33 34 38 40 43 45 46 47 48 50 49 50 51 51 49 48 48 48 47 48
8 13 17 18 20 21 26 29 32 35 31 30 31 34 38 41 43 46 46 47 49 49 50 51 51 51 51 53 52 51 51 51
12 16 19 26 29 32 30 27 26 29 34 32 34 37 41 43 44 46 46 46 46 45 46 48 48 51 50 51 53 53 54 52
5 12 18 22 25 30 32 30 28 30 35 41 45 47 44 43 42 41 42 41 43 44 47 49 53 55 56 55 52 48 43 43
9 13 14 17 23 29 32 31 32 37 41 43 40 42 42 41 41 40 40 44 47 50 54 53 53 52 51 49 38 37 30 30
8 11 17 25 28 30 33 36 39 40 42 42 40 40 38 41 41 41 44 45 46 48 49 49 51 42 37 31 38 32 32 30
10 15 19 27 30 34 37 42 42 45 43 41 38 39 40 41 42 42 44 45 48 49 51 43 33 31 34 34 33 32 34 35
12 20 30 32 35 36 41 40 43 44 39 38 37 39 41 43 42 43 45 46 47 45 36 34 35 35 37 39 40 39 37 40
21 28 32 36 36 43 39 40 43 40 38 35 39 40 42 41 41 43 46 45 43 38 32 33 35 35 36 35 37 41 43 37
29 32 30 35 48 39 37 38 39 41 37 39 37 40 43 44 45 45 45 42 39 35 33 36 38 36 35 34 34 34 33 30
32 37 38 47 41 39 36 34 38 40 40 38 41 44 46 47 42 43 42 40 37 35 34 33 33 34 33 33 32 32 33 35
45 38 44 39 36 34 31 34 34 41 40 43 43 45 47 42 46 42 39 36 36 34 32 31 31 31 30 32 34 35 36 36
39 40 40 39 27 27 30 31 39 41 41 43 45 38 40 40 47 42 37 37 37 36 32 30 29 30 32 35 34 32 33 35
35 37 29 26 27 26 29 33 34 38 35 43 35 39 42 46 47 43 37 37 37 36 32 30 30 31 34 36 35 34 36 37
35 26 28 32 32 33 30 34 38 44 46 41 46 46 37 42 44 43 40 36 37 33 30 33 31 32 35 37 37 37 39 38
Wind_Direction
213 206 206 226 230 244 256 260 271 284 292 293 291 293 296 297 295 288 295 300 297 303 303 302 299 297 299 296 294 294 293 290
204 215 235 257 246 252 269 278 285 286 286 294 296 292 292 290 290 289 295 296 297 303 305 302 300 301 300 298 295 291 288 287
221 232 248 259 267 272 268 283 291 291 297 298 290 289 290 290 288 289 290 295 301 305 304 302 299 298 297 297 293 290 284 281
241 245 253 260 261 274 286 293 294 296 295 293 292 290 291 295 295 295 294 301 300 302 300 304 300 300 301 299 292 283 282 285
252 252 244 258 275 288 298 301 300 299 293 292 294 295 295 294 295 298 298 295 295 301 305 302 301 300 301 297 291 289 290 288
278 278 273 277 284 298 310 309 303 298 296 297 297 297 297 298 297 297 299 301 307 305 302 299 299 299 296 295 296 291 288 287
286 293 312 305 302 305 310 308 304 306 306 303 303 306 308 307 303 302 302 306 303 302 300 300 299 297 297 295 293 291 290 291
270 292 298 305 311 313 314 317 309 304 306 309 311 311 309 304 303 301 303 301 304 304 300 298 300 301 300 300 300 301 300 298
323 320 321 311 307 305 309 312 311 307 302 305 305 302 304 304 302 307 307 308 308 308 308 307 305 304 304 303 302 299 299 299
320 292 309 304 308 307 312 314 312 312 311 310 306 303 304 304 309 307 306 307 308 308 309 309 310 309 305 287 288 293 293 292
288 293 284 288 301 309 308 310 304 307 305 306 306 309 307 306 307 307 308 312 314 315 314 315 307 305 301 298 298 297 296 294
298 292 297 304 308 306 300 301 294 305 305 309 308 309 305 306 312 313 316 316 315 314 309 302 302 300 295 295 296 292 296 297
285 300 304 305 301 306 301 297 301 305 308 305 306 308 307 313 313 316 313 312 312 315 302 301 302 300 298 294 293 299 299 301
304 307 311 308 311 308 308 305 303 305 304 306 310 310 311 313 311 310 311 314 315 316 312 309 305 304 300 300 297 297 299 301
302 298 306 313 315 313 306 304 301 309 305 312 311 310 309 310 311 316 318 316 316 314 312 308 306 304 305 299 300 302 300 298
305 295 312 316 313 309 306 304 297 303 309 307 309 317 311 317 320 318 317 314 313 312 310 306 305 305 303 299 302 302 301 297
311 300 311 315 314 303 305 308 311 308 303 313 312 308 293 306 317 321 320 316 317 315 313 308 307 306 304 309 314 309 303 300
308 312 321 308 303 303 308 307 301 302 307 309 297 296 299 308 320 320 319 319 319 317 317 316 316 318 314 315 314 308 304 303
320 325 316 314 312 314 308 300 307 308 306 305 309 295 291 304 321 317 307 314 317 319 320 320 322 318 315 313 313 309 306 304